TimeCST,TemperatureF,Dew PointF,Humidity,Sea Level PressureIn,VisibilityMPH,Wind Direction,Wind SpeedMPH,Gust SpeedMPH,PrecipitationIn,Events,Conditions,WindDirDegrees,DateUTC
12:14 AM,24.8,14.0,64,30.36,10.0,NW,26.5,36.8,N/A,,Overcast,320,2012-11-23 06:14:00
12:41 AM,24.8,12.2,59,30.37,10.0,NW,31.1,39.1,N/A,,Overcast,320,2012-11-23 06:41:00
12:53 AM,24.1,12.0,60,30.43,10.0,NW,26.5,40.3,N/A,,Overcast,320,2012-11-23 06:53:00
1:29 AM,23.0,12.2,63,30.40,-9999.0,North,-9999.0,-,N/A,,Unknown,0,2012-11-23 07:29:00
1:53 AM,21.9,10.9,63,30.45,10.0,NW,23.0,32.2,N/A,,Unknown,320,2012-11-23 07:53:00
2:53 AM,21.0,10.9,65,30.49,10.0,NW,20.7,28.8,N/A,,Clear,310,2012-11-23 08:53:00
3:53 AM,19.9,10.9,68,30.50,10.0,NW,21.9,-,N/A,,Clear,310,2012-11-23 09:53:00
4:53 AM,19.0,10.9,71,30.51,10.0,WNW,18.4,-,N/A,,Unknown,300,2012-11-23 10:53:00
5:53 AM,19.0,10.9,71,30.53,10.0,NW,19.6,26.5,N/A,,Clear,310,2012-11-23 11:53:00
6:53 AM,17.1,10.0,74,30.55,10.0,NW,18.4,-,N/A,,Clear,310,2012-11-23 12:53:00
7:53 AM,17.1,10.0,74,30.57,10.0,NW,17.3,-,N/A,,Clear,310,2012-11-23 13:53:00
8:53 AM,19.0,10.0,68,30.58,10.0,NW,19.6,-,N/A,,Clear,320,2012-11-23 14:53:00
9:53 AM,19.9,9.0,62,30.60,10.0,NW,20.7,-,N/A,,Clear,320,2012-11-23 15:53:00
10:53 AM,23.0,10.0,58,30.61,10.0,North,-9999.0,-,N/A,,Clear,0,2012-11-23 16:53:00
11:53 AM,25.0,10.0,53,30.59,10.0,NW,16.1,-,N/A,,Clear,320,2012-11-23 17:53:00
12:53 PM,27.0,9.0,47,30.56,10.0,NW,12.7,-,N/A,,Unknown,310,2012-11-23 18:53:00
1:53 PM,28.0,9.0,45,30.55,-9999.0,North,-9999.0,-,N/A,,Unknown,0,2012-11-23 19:53:00
2:53 PM,30.0,8.1,40,30.52,10.0,NNW,10.4,-,N/A,,Unknown,330,2012-11-23 20:53:00
4:53 PM,25.0,8.1,49,30.45,10.0,North,4.6,-,N/A,,Clear,360,2012-11-23 22:53:00
5:53 PM,24.1,9.0,53,30.43,10.0,NE,3.5,-,N/A,,Clear,40,2012-11-23 23:53:00
6:53 PM,21.9,8.1,55,30.43,10.0,Calm,Calm,-,N/A,,Clear,0,2012-11-24 00:53:00
7:53 PM,19.9,9.0,62,30.40,10.0,Calm,Calm,-,N/A,,Clear,0,2012-11-24 01:53:00
8:53 PM,19.9,10.0,65,30.39,10.0,Calm,Calm,-,N/A,,Clear,0,2012-11-24 02:53:00
9:53 PM,19.9,10.9,68,30.38,10.0,ESE,3.5,-,N/A,,Clear,120,2012-11-24 03:53:00
10:53 PM,19.9,10.0,65,30.35,10.0,ESE,8.1,-,N/A,,Clear,120,2012-11-24 04:53:00
11:53 PM,21.0,10.9,65,30.34,10.0,SSE,5.8,-,N/A,,Partly Cloudy,150,2012-11-24 05:53:00